Regional Weather Roundup
Issued by NWS

Home | Current Version | Previous Version | Text Only | Print | Product List | Glossary On
Versions: 1 2 3 4 5 6 7 8 9 10 11 12 13 14 15 16 17 18 19 20 21 22 23 24 25 26 27 28 29 30 31 32 33 34 35 36 37 38 39 40 41 42 43 44 45 46 47 48 49 50
000
ASUS43 KLSX 261059
RWRMO

WEATHER SUMMARY FOR MISSOURI
NATIONAL WEATHER SERVICE SPRINGFIELD MO
600 AM CDT SUN APR 26 2015

NOTE: "FAIR" INDICATES FEW OR NO CLOUDS BELOW 12,000 FEET WITH NO
       SIGNIFICANT WEATHER AND/OR OBSTRUCTIONS TO VISIBILITY.
       CURRENT SKY AND/OR WEATHER CONDITIONS ARE NOT AVAILABLE FOR
       CHILLICOTHE AND FARMINGTON.

MOZ001>031-035>038-043-044-053-054-261200-
...NORTHERN AND WESTERN MISSOURI...

CITY           SKY/WX    TMP DP  RH WIND       PRES   REMARKS
KANSAS CTY INT CLOUDY    48  45  89 NE9       29.88R
KANSAS C DTWN  CLOUDY    49  45  86 NE9       29.87R
LEE`S SUMMIT   CLOUDY    48  44  86 NE15      29.87R
ST JOSEPH      CLOUDY    48  43  82 NE10      29.91R HAZE
CHILLICOTHE      N/A     48  41  76 NE8       29.92R
KIRKSVILLE     MOCLDY    43  40  89 NE9       29.94R

$$
MOZ066>068-077>081-088>096-101>105-261200-
...SOUTHWEST MISSOURI...

CITY           SKY/WX    TMP DP  RH WIND       PRES   REMARKS
SPRINGFIELD    CLOUDY    52  49  89 NE13      29.80R
JOPLIN         CLOUDY    53  50  89 NE7       29.81R

$$
MOZ032>034-039>042-045>050-055>058-069>072-261200-
...CENTRAL MISSOURI...

CITY           SKY/WX    TMP DP  RH WIND       PRES   REMARKS
COLUMBIA       CLOUDY    47  43  86 NE12      29.87R
JEFFERSON CITY CLOUDY    48  43  82 NE5       29.87R
ROLLA          CLOUDY    45  44  97 NE9       29.82S
SEDALIA        CLOUDY    48  46  93 NE9       29.87R FOG
OSAGE BEACH    CLOUDY    46  43  87 NE9       29.84R

$$
MOZ051-052-059>065-261200-
...EAST CENTRAL MISSOURI...

CITY           SKY/WX    TMP DP  RH WIND       PRES   REMARKS
ST LOUIS INTL  CLOUDY    49  40  71 NE8       29.87R
SPIRIT OF STL  CLOUDY    47  43  86 NE10      29.86R FOG
ST CHARLES     CLOUDY    47  41  80 N8        29.87R

$$
MOZ072>076-082>087-097>100-106>115-261200-
...SOUTH CENTRAL AND SOUTHEAST MISSOURI...

CITY           SKY/WX    TMP DP  RH WIND       PRES   REMARKS
CAPE GIRARDEAU CLOUDY    50  48  93 N10       29.79R
FARMINGTON     CLOUDY    46  45  93 N8        29.85R
POPLAR BLUFF   CLOUDY    54  48  80 N12       29.76R
WEST PLAINS    CLOUDY    52  48  86 N10       29.79R

$$


USA.gov is the U.S. government's official web portal to all federal, state and local government web resources and services.